IRIDIUM 33 DEB, 35297

Orbit data source: Space-Track

IRIDIUM 33 DEB, 35297 is space debris in LEO originally from a launch on Sun, 14 Sep 1997 UTC launched from the Tyuratam Missile And Space Complex (TTMTR). The debris from Iridium 33, an American commercial communications satellite, has been tracked extensively since its accidental collision with the defunct Russian satellite Cosmos 2251 in 2009. This event, occurring at high speed in low Earth orbit (LEO), generated thousands of pieces of space debris, significantly increasing the risk of further collisions. The Iridium 33 debris cloud has impacted space traffic management and orbital debris mitigation strategies, making it a subject of ongoing study in space situational awareness.

Loading next visibility...
Identifier
35297, 1997-051PM
Orbit
LEO
Country
Flag of USUS
Related business
Manufacturer
Unknown
Mission
Spacecraft
Bus & Motor
Unknown
Mass
Unknown
Launch date (UTC)
1997-09-14 (28 years ago)
Launch vehicle
Unknown
Launch site
Tyuratam Missile And Space Complex (TTMTR)
Object type
Payload
Rocket body
Debris
Shape & HBR
Unknown shape, 0.1 m
Radar Cross Section
Small (<0.1 m²)

Expand to show TLE details & history
Last TLE update: 1 week ago

TLE from 1 week ago
0 IRIDIUM 33 DEB
1 35297U 97051PM  26027.77986554  .00003842  00000-0  10851-2 0  9990
2 35297  86.3917  43.0981 0017045 359.3271   0.7905 14.45404731710916
Epoch: 2026-01-27T18:43Z
TLE epoch observation values (Epoch: 2026-01-27T18:43:00.382Z)
Latitude
-0.00003°
Longitude
-4.70986°
Altitude
731.628 km
Speed
7.496 km/s
True Right ascension
02h 52m 23s
True Declination
0° 00' 00"
Sunlit
Object was in daylight at epoch
Visualization orbit readout
Latitude
Unknown
Longitude
Unknown
Altitude
Unknown
Speed
Unknown
Apparent Right ascension
Unknown
Apparent Declination
Unknown
Sunlit
N/A
Visualization observer readout
Local Sidereal Time
08:01:49
Azimuth
Unknown
Elevation
Unknown
Doppler factor
Unknown
Orbital elements
Apogee altitude
749.775 km
Perigee altitude
725.517 km
Semi-major axis
7,115.783 km
Eccentricity
0.0017
Inclination
86.3917°
RAAN
43.0981°
Arg. of periapsis
359.3271°
True anomaly
0.7932°
Mean anomaly
0.7905°
Eccentric anomaly
0.79185°
Mean motion
3.61584 °/min
Orbital period
99.56 mins
BSTAR
0.0010851
Loading maneuver chart data...
Computing Atmospheric mass density...

Documentation

Showing up to 5 results
|